Location: ??????
(42.0089°N, 44.3281°E)
Time: 12:18:39
(UTC+00:00)

Meteor 2-10 Rocket - Pass Details

Date: 24 October 2021
Orbit: 733 x 885 km, 81.2° (Epoch: 07 December)

Event Time Altitude Azimuth Distance (km) Brightness Sun altitude
Rises 15:45:21 0° 191° (SSW) 3,412 7.0 -18.8°
Reaches altitude 10° 15:47:48 10° 193° (SSW) 2,460 6.3 -19.3°
Maximum altitude 15:53:23 79° 279° (W) 842 3.7 -20.3°
Drops below altitude 10° 15:58:46 10° 7° (N) 2,376 6.0 -21.3°
Sets 16:01:07 0° 9° (N) 3,287 6.7 -21.7°
